• In Deutschland
  • Länderverzeichnis
  • Für 7 Tage
  • Wassertemperatur
  • Satellitenkarten
  • Wetterkarte
  • Widgets
  • user-avatar
    Anmelden

    Stündliche Wetter Durres

    Heute, 30 Mai, Dienstag

    Zeit Temperatur Niederschläge Wind Luftdruck Luftfeuchtigkeit
    00:00 +16°C° 0 mm 1 m/S 761 mmHg 78%
    01:00 +16°C° 0 mm 1 m/S 761 mmHg 78%
    02:00 +16°C° 0 mm 1 m/S 761 mmHg 80%
    03:00 +16°C° 0 mm 1 m/S 761 mmHg 81%
    04:00 +15°C° 0 mm 1 m/S 760 mmHg 83%
    05:00 +19°C° 0 mm 1 m/S 761 mmHg 74%
    06:00 +21°C° 0 mm 1 m/S 761 mmHg 65%
    07:00 +24°C° 0 mm 1 m/S 761 mmHg 57%
    08:00 +25°C° 0 mm 1 m/S 761 mmHg 53%
    09:00 +26°C° 0 mm 1 m/S 761 mmHg 48%
    10:00 +27°C° 0 mm 1 m/S 761 mmHg 44%
    11:00 +28°C° 0 mm 2 m/S 761 mmHg 43%
    12:00 +28°C° 0 mm 2 m/S 761 mmHg 42%
    13:00 +28°C° 0 mm 3 m/S 761 mmHg 41%
    14:00 +28°C° 0 mm 3 m/S 761 mmHg 41%
    15:00 +27°C° 0 mm 2 m/S 761 mmHg 42%
    16:00 +27°C° 0 mm 2 m/S 761 mmHg 43%
    17:00 +24°C° 0 mm 2 m/S 761 mmHg 53%
    18:00 +21°C° 0 mm 2 m/S 761 mmHg 63%
    19:00 +19°C° 0 mm 1 m/S 761 mmHg 73%
    20:00 +18°C° 0 mm 2 m/S 762 mmHg 73%
    21:00 +17°C° 0 mm 2 m/S 762 mmHg 73%
    22:00 +16°C° 0 mm 2 m/S 763 mmHg 73%
    23:00 +16°C° 0 mm 2 m/S 763 mmHg 73%

    Morgen, 31 Mai, Mittwoch

    Zeit Temperatur Niederschläge Wind Luftdruck Luftfeuchtigkeit
    00:00 +16°C° 0 mm 2 m/S 763 mmHg 73%
    01:00 +15°C° 0 mm 2 m/S 763 mmHg 73%
    02:00 +15°C° 0 mm 2 m/S 763 mmHg 73%
    03:00 +15°C° 0 mm 2 m/S 763 mmHg 72%
    04:00 +15°C° 0 mm 2 m/S 763 mmHg 71%
    05:00 +18°C° 0 mm 2 m/S 763 mmHg 63%
    06:00 +20°C° 0 mm 2 m/S 763 mmHg 56%
    07:00 +24°C° 0 mm 2 m/S 763 mmHg 48%
    08:00 +25°C° 0 mm 2 m/S 763 mmHg 45%
    09:00 +27°C° 0 mm 2 m/S 763 mmHg 42%
    10:00 +28°C° 0 mm 2 m/S 763 mmHg 39%
    11:00 +28°C° 0 mm 2 m/S 763 mmHg 38%
    12:00 +29°C° 0 mm 3 m/S 763 mmHg 38%
    13:00 +29°C° 0 mm 3 m/S 763 mmHg 38%
    14:00 +29°C° 0 mm 3 m/S 762 mmHg 40%
    15:00 +28°C° 0 mm 3 m/S 762 mmHg 43%
    16:00 +28°C° 0 mm 2 m/S 762 mmHg 46%
    17:00 +25°C° 0 mm 2 m/S 762 mmHg 57%
    18:00 +22°C° 0 mm 1 m/S 762 mmHg 69%
    19:00 +20°C° 0 mm 1 m/S 762 mmHg 80%
    20:00 +19°C° 0 mm 1 m/S 763 mmHg 81%
    21:00 +18°C° 0 mm 1 m/S 763 mmHg 82%
    22:00 +18°C° 0 mm 1 m/S 763 mmHg 83%
    23:00 +16°C° 0 mm 0 m/S 763 mmHg 83%

    übermorgen, 1 Juni, Donnerstag

    Zeit Temperatur Niederschläge Wind Luftdruck Luftfeuchtigkeit
    00:00 +15°C° 0 mm 0 m/S 763 mmHg 84%
    01:00 +15°C° 0 mm 0 m/S 763 mmHg 84%
    02:00 +15°C° 0 mm 0 m/S 763 mmHg 84%
    03:00 +16°C° 0 mm 1 m/S 763 mmHg 84%
    04:00 +16°C° 0 mm 1 m/S 763 mmHg 84%
    05:00 +19°C° 0 mm 1 m/S 763 mmHg 73%
    06:00 +22°C° 0 mm 1 m/S 763 mmHg 61%
    07:00 +23°C° 0 mm 0 m/S 763 mmHg 50%
    08:00 +27°C° 0 mm 1 m/S 763 mmHg 47%
    09:00 +28°C° 0 mm 1 m/S 763 mmHg 43%
    10:00 +29°C° 0 mm 1 m/S 763 mmHg 39%
    11:00 +30°C° 0 mm 2 m/S 762 mmHg 39%
    12:00 +30°C° 0 mm 3 m/S 762 mmHg 39%
    13:00 +32°C° 0 mm 4 m/S 762 mmHg 39%
    14:00 +30°C° 0 mm 3 m/S 762 mmHg 42%
    15:00 +29°C° 0 mm 3 m/S 762 mmHg 44%
    16:00 +29°C° 0 mm 3 m/S 762 mmHg 46%
    17:00 +26°C° 0 mm 2 m/S 762 mmHg 55%
    18:00 +23°C° 0 mm 2 m/S 762 mmHg 65%
    19:00 +20°C° 0 mm 2 m/S 762 mmHg 75%
    20:00 +20°C° 0 mm 1 m/S 762 mmHg 77%
    21:00 +19°C° 0 mm 1 m/S 762 mmHg 80%
    22:00 +19°C° 0 mm 1 m/S 763 mmHg 82%
    23:00 +18°C° 0 mm 1 m/S 763 mmHg 82%

    2 Juni, Freitag

    Zeit Temperatur Niederschläge Wind Luftdruck Luftfeuchtigkeit
    00:00 +18°C° 0 mm 1 m/S 762 mmHg 82%
    01:00 +18°C° 0 mm 1 m/S 762 mmHg 82%
    02:00 +18°C° 0 mm 1 m/S 762 mmHg 82%
    03:00 +16°C° 0 mm 1 m/S 762 mmHg 83%
    04:00 +16°C° 0 mm 2 m/S 762 mmHg 83%
    05:00 +20°C° 0 mm 1 m/S 762 mmHg 73%
    06:00 +23°C° 0 mm 1 m/S 762 mmHg 64%
    07:00 +26°C° 0 mm 1 m/S 762 mmHg 54%
    08:00 +27°C° 0 mm 1 m/S 762 mmHg 50%
    09:00 +29°C° 0 mm 2 m/S 762 mmHg 45%
    10:00 +31°C° 0 mm 2 m/S 762 mmHg 41%
    11:00 +31°C° 0 mm 3 m/S 762 mmHg 41%
    12:00 +32°C° 0 mm 4 m/S 761 mmHg 41%
    13:00 +33°C° 0 mm 4 m/S 761 mmHg 41%
    14:00 +32°C° 0 mm 4 m/S 761 mmHg 44%
    15:00 +30°C° 0 mm 4 m/S 761 mmHg 46%
    16:00 +30°C° 0 mm 4 m/S 760 mmHg 49%
    17:00 +27°C° 0 mm 3 m/S 760 mmHg 60%
    18:00 +24°C° 0 mm 3 m/S 760 mmHg 70%
    19:00 +21°C° 0 mm 2 m/S 760 mmHg 81%
    20:00 +20°C° 0 mm 2 m/S 761 mmHg 83%
    21:00 +20°C° 0 mm 1 m/S 761 mmHg 85%
    22:00 +19°C° 0 mm 1 m/S 761 mmHg 87%
    23:00 +19°C° 0 mm 1 m/S 761 mmHg 87%

    3 Juni, Samstag

    Zeit Temperatur Niederschläge Wind Luftdruck Luftfeuchtigkeit
    00:00 +19°C° 0 mm 1 m/S 760 mmHg 87%
    01:00 +19°C° 0 mm 1 m/S 760 mmHg 87%
    02:00 +19°C° 0 mm 1 m/S 760 mmHg 87%
    03:00 +18°C° 0 mm 1 m/S 760 mmHg 88%
    04:00 +18°C° 0 mm 1 m/S 760 mmHg 88%
    05:00 +21°C° 0 mm 1 m/S 760 mmHg 78%
    06:00 +24°C° 0 mm 1 m/S 760 mmHg 69%
    07:00 +26°C° 0 mm 1 m/S 760 mmHg 60%
    08:00 +28°C° 0 mm 1 m/S 760 mmHg 55%
    09:00 +29°C° 0 mm 2 m/S 760 mmHg 50%
    10:00 +30°C° 0 mm 2 m/S 760 mmHg 46%
    11:00 +31°C° 0 mm 3 m/S 760 mmHg 45%
    12:00 +31°C° 0 mm 3 m/S 759 mmHg 44%
    13:00 +32°C° 0 mm 4 m/S 759 mmHg 43%
    14:00 +32°C° 0 mm 4 m/S 759 mmHg 44%
    15:00 +30°C° 0 mm 4 m/S 759 mmHg 46%
    16:00 +30°C° 0 mm 4 m/S 759 mmHg 48%
    17:00 +27°C° 0 mm 3 m/S 759 mmHg 58%
    18:00 +24°C° 0 mm 3 m/S 759 mmHg 68%
    19:00 +21°C° 0 mm 2 m/S 759 mmHg 79%
    20:00 +20°C° 0 mm 2 m/S 759 mmHg 81%
    21:00 +19°C° 0 mm 2 m/S 759 mmHg 83%
    22:00 +20°C° 0 mm 1 m/S 760 mmHg 85%
    23:00 +19°C° 0 mm 1 m/S 760 mmHg 85%

    4 Juni, Sonntag

    Zeit Temperatur Niederschläge Wind Luftdruck Luftfeuchtigkeit
    00:00 +19°C° 0 mm 1 m/S 759 mmHg 85%
    01:00 +19°C° 0 mm 1 m/S 759 mmHg 86%
    02:00 +19°C° 0 mm 1 m/S 759 mmHg 86%
    03:00 +19°C° 0 mm 1 m/S 759 mmHg 86%
    04:00 +18°C° 0 mm 1 m/S 759 mmHg 86%
    05:00 +21°C° 0 mm 1 m/S 759 mmHg 77%
    06:00 +24°C° 0 mm 1 m/S 759 mmHg 67%
    07:00 +27°C° 0 mm 1 m/S 759 mmHg 58%
    08:00 +28°C° 0 mm 1 m/S 759 mmHg 53%
    09:00 +29°C° 0 mm 2 m/S 759 mmHg 49%
    10:00 +31°C° 0 mm 2 m/S 759 mmHg 44%
    11:00 +31°C° 0,1 mm 2 m/S 759 mmHg 44%
    12:00 +31°C° 0,1 mm 3 m/S 759 mmHg 43%
    13:00 +33°C° 0,1 mm 4 m/S 759 mmHg 42%
    14:00 +31°C° 0 mm 3 m/S 759 mmHg 44%
    15:00 +30°C° 0 mm 3 m/S 759 mmHg 46%
    16:00 +29°C° 0 mm 3 m/S 759 mmHg 49%
    17:00 +27°C° 0 mm 2 m/S 759 mmHg 58%
    18:00 +25°C° 0 mm 2 m/S 759 mmHg 67%
    19:00 +23°C° 0 mm 1 m/S 759 mmHg 76%
    20:00 +22°C° 0 mm 1 m/S 759 mmHg 78%
    21:00 +21°C° 0 mm 1 m/S 759 mmHg 80%
    22:00 +19°C° 0 mm 0 m/S 759 mmHg 82%
    23:00 +20°C° 0 mm 1 m/S 759 mmHg 83%
    Mehr zeigen